Location: Houston
(29.7630°N, 95.3630°W)
Time: 18:00:06
(UTC-05:00)

Saudisat 1A - Visible Passes

Search period start: 27 August 2014 00:00
Search period end: 06 September 2014 00:00
Orbit: 600 x 607 km, 64.6° (Epoch: 25 August)

Date Brightness Start Highest point End Pass type
(mag) Time Alt. Az. Time Alt. Az. Time Alt. Az.
03 Sep 11.5 06:27:07 10° NE 06:27:59 11° NE 06:28:52 10° ENE visible
04 Sep 10.9 06:37:19 10° N 06:40:37 20° NE 06:43:54 10° ESE visible
04 Sep 9.4 20:38:18 10° SSE 20:40:33 19° SE 20:40:33 19° SE visible
04 Sep 10.7 22:17:09 10° WSW 22:17:43 13° WSW 22:17:43 13° WSW visible
05 Sep 8.3 20:49:34 10° S 20:53:44 44° ESE 20:57:55 10° NE visible
05 Sep 10.9 22:31:02 10° W 22:33:29 15° NW 22:35:57 10° NNW visible
